Regional Weather Roundup
Issued by NWS Sioux Falls, SD

Home | Current Version | Previous Version | Text Only | Print | Product List | Glossary On
Versions: 1 2 3 4 5 6 7 8 9 10 11 12 13 14 15 16 17 18 19 20 21 22 23 24 25 26 27 28 29 30 31 32 33 34 35 36 37 38 39 40 41 42 43 44 45 46 47 48 49 50
000
ASUS43 KFSD 280310
RWRFSD

WEATHER ROUNDUP FOR SE SOUTH DAKOTA/SW MINNESOTA/NW IOWA
NATIONAL WEATHER SERVICE SIOUX FALLS SD
1000 PM CDT THU APR 27 2017

NOTE: "FAIR" INDICATES FEW OR NO CLOUDS BELOW 12,000 FEET WITH NO
SIGNIFICANT WEATHER AND OR OBSTRUCTIONS TO VISIBILITY.


SDZ038>040-050-052>070-280400-
SOUTHEAST SOUTH DAKOTA

CITY           SKY/WX    TMP DP  RH WIND       PRES   REMARKS
BROOKINGS      CLEAR     37  27  67 E6        29.81R
CHAMBERLAIN    CLEAR     42  32  67 NE6       29.77R
HURON          CLEAR     38  29  70 SE5       29.80R
MADISON        FAIR      34  30  86 NE9       29.81R WCI  26
MITCHELL       CLEAR     38  29  70 NE7       29.80R
SIOUX FALLS    CLEAR     39  30  70 N6        29.81R
WINNER         FAIR      43  32  65 E9        29.74R
YANKTON        CLEAR     43  30  61 N8        29.78R
$$

MNZ071-072-080-081-089-090-097-098-280400-
SOUTHWEST MINNESOTA

CITY           SKY/WX    TMP DP  RH WIND       PRES   REMARKS
FAIRMONT       CLEAR     33  28  81 N5        29.83R WCI  29
JACKSON        CLEAR     32  28  86 CALM      29.83R
LUVERNE        CLEAR     36  30  80 NE7       29.81R
MARSHALL       CLOUDY    36  29  75 CALM      29.82R
MONTEVIDEO     CLOUDY    36  28  75 CALM      29.79R
PIPESTONE      CLEAR     36  27  69 NE3       29.81R
REDWOOD FALLS  MOCLDY    34  26  72 W8        29.81R WCI  27
TRACY          CLOUDY    35  31  85 CALM      29.82R
WINDOM         CLEAR     30  28  93 CALM      29.82R
WORTHINGTON    CLEAR     31  29  92 NE6       29.83R WCI  25
$$

IAZ001>003-012>014-020>022-031-032-NEZ013-014-SDZ071-280400-
NORTHWEST IOWA

CITY           SKY/WX    TMP DP  RH WIND       PRES   REMARKS
CHEROKEE       CLEAR     36  33  89 NE6       29.81R
DENISON        CLOUDY    45  34  65 NE5       29.80R
ESTHERVILLE    CLEAR     31  29  92 N7        29.82R WCI  24
LE MARS        CLEAR     39  36  87 CALM      29.80R
ORANGE CITY    CLEAR     41  36  81 E3        29.80R
SHELDON        CLEAR     36  32  87 SE6       29.79R
SIOUX CITY     CLEAR     43  32  65 NE3       29.78R
SPENCER        CLEAR     34  31  88 NE3       29.82R
STORM LAKE     CLEAR     37  32  81 E6        29.80R
$$

ABBREVIATIONS USED IN REMARKS
   TC - TEMPERATURE IN CELSIUS
  WCI - WIND CHILL INDEX
   HX - HEAT INDEX
  VSB - VISIBILITY





USA.gov is the U.S. government's official web portal to all federal, state and local government web resources and services.